Location: Contre
(49.7477°N, 2.0963°E)
Time: 01:00:15
(UTC+00:00)

Envisat - Pass Details

Date: 01 March 2024
Orbit: 762 x 764 km, 98.3° (Epoch: 12 April)

Event Time Altitude Azimuth Distance (km) Brightness Sun altitude
Rises 03:40:01 0° 13° (NNE) 3,243 6.7 -28.4°
Reaches altitude 10° 03:42:20 10° 11° (NNE) 2,312 5.9 -28.0°
Enters shadow 03:46:35 61° 350° (N) 871 3.2 -27.4°
